Weather in Uchkuduk

Uzbekistan     42˚09′09″N   63˚33′44″E
temp.,
°C
wind,
m/s
gust,
m/s
humid.,
%
clouds,
%
prec.,
mm/h
press.,
hPa
HPBL,
m
28 november, sat
sat2823:00+1˚wnw81193100 0.3 1029608
02:00+1˚w7139887 0.6 1032492
05:00+2˚w7108693 1.6 1035821
08:00w458090 0.1 103983
11:00+2˚wsw566390 0.1 1041858
14:00+4˚w555129 0.0 1041918
17:00+1˚nw236714 0.0 104222
20:00−1˚ne45820 0.0 104248
29 november, sun
sun2923:00−1˚ene56860 0.0 104369
02:00−2˚ene56850 0.0 104266
05:00−2˚ene56840 0.0 104294
08:00−2˚ene611810 0.0 1042173
11:00+2˚ene1014550 0.0 1042579
14:00+4˚ene1013410 0.0 1041665
17:00+1˚ene1015470 0.0 1040408
20:00−2˚ne1218523 0.0 1040288
30 november, mon
mon3023:00−2˚ne12185217 0.0 1039270
02:00−3˚ne1218530 0.0 1038258
05:00−3˚ne1218550 0.0 1036254
08:00−3˚ene10175797 0.0 1035258
11:00+2˚ene12173599 0.0 1034480
14:00+4˚ene121629100 0.0 1032517
17:00+1˚ene111643100 0.0 1031352
20:00ene111650100 0.0 1031321
1 december, tue
tue123:00−1˚ne111556100 0.0 1030271
02:00−2˚ne71156100 0.0 1029236
05:00−2˚ne81158100 0.0 1029225
08:00−3˚ne71163100 0.1 1029168
11:00+1˚ne674087 0.1 1030280
14:00+3˚ne33312 0.0 1029574
17:00−1˚ne68431 0.0 1029168
20:00−4˚ne575519 0.0 1030110
2 december, wed
wed223:00−5˚ne345618 0.0 103139
02:00−5˚ne225814 0.0 103021
05:00−6˚ene226143 0.0 103021
08:00−6˚ene226718 0.0 103121
11:00+1˚sse11379 0.0 1031318
14:00+4˚wsw11290 0.0 1029500
17:00+1˚wnw23340 0.0 102922
20:00−2˚ene344982 0.0 102930